Flag for India Weather past 2 weeks in Chennai, Tamil Nadu, India

Now
100 °F

Passing clouds.


Feels Like: 110 °F
Forecast: 84 / 104 °F
Wind: 14 mph from Northwest

Location: Madras / Minambakkam

Current Time: May 25, 2015 at 11:13:11 AM

Latest Report: May 25, 2015 at 10:40 AM


Visibility: 4 mi

Pressure: 29.68 "Hg

Humidity: 40%

Dew point: 72 °F

Location of ChennaiLocation

Historic Weather in Chennai — Graph

°F

Chennai temperature yesterday

Maximum temperature yesterday: 108 °F (at 3:10 PM)
Minimum temperature yesterday: 86 °F (at 5:10 AM)
Average temperature yesterday: 94 °F

Past Weeks' High & Low Weather Summary

 TemperatureHumidityPressure
High108 °F (May 24, 3:10 PM)94% (May 14, 2:10 AM)29.83 "Hg (May 14, 2:10 AM)
Low79 °F (May 16, 10:10 AM)34% (May 24, 3:10 PM)29.56 "Hg (May 21, 3:10 PM)
Average89 °F73%29.69 "Hg
* Reported May 10 8:40 AM — May 25 9:10 AM, Chennai, Weather by CustomWeather, © 2015

Note: Actual official high and low records may vary slightly from our data, if they occured in-between our weather recording intervals... More about our weather records

Advertising

Chennai weather history for previous 24 hours

 ConditionsComfort  
Time TempWeatherWind HumidityBarometerVisibility
9:10 AM
Mon, May 25
95 °FPassing clouds.12 mph50%29.71 "Hg4 mi
8:40 AM93 °FPassing clouds.12 mph56%29.71 "Hg4 mi
8:10 AM91 °FPassing clouds.14 mph59%29.71 "Hg4 mi
7:40 AM90 °FPassing clouds.9 mph63%29.68 "Hg4 mi
7:10 AM90 °FPassing clouds.10 mph67%29.68 "Hg4 mi
6:40 AM88 °FPassing clouds.13 mph70%29.68 "Hg4 mi
6:10 AM86 °FPassing clouds.12 mph75%29.65 "Hg4 mi
5:40 AM86 °FPassing clouds.9 mph75%29.65 "Hg4 mi
5:10 AM88 °FPassing clouds.13 mph75%29.65 "Hg4 mi
4:40 AM88 °FPassing clouds.12 mph75%29.65 "Hg4 mi
4:10 AM88 °FPassing clouds.9 mph75%29.62 "Hg4 mi
3:40 AM88 °FPassing clouds.13 mph75%29.62 "Hg4 mi
2:40 AM88 °FPassing clouds.14 mph79%29.62 "Hg4 mi
2:10 AM88 °FPassing clouds.13 mph79%29.62 "Hg4 mi
1:40 AM88 °FPassing clouds.12 mph79%29.65 "Hg4 mi
1:10 AM88 °FPassing clouds.12 mph79%29.65 "Hg4 mi
12:40 AM88 °FPassing clouds.9 mph79%29.65 "Hg4 mi
12:10 AM88 °FPassing clouds.10 mph79%29.65 "Hg4 mi
11:40 PM
Sun, May 24
90 °FPassing clouds.9 mph75%29.68 "Hg4 mi
11:10 PM88 °FPassing clouds.10 mph79%29.68 "Hg4 mi
10:40 PM90 °FPassing clouds.12 mph75%29.68 "Hg4 mi
10:10 PM90 °FPassing clouds.9 mph75%29.68 "Hg4 mi
9:40 PM91 °FPassing clouds.10 mph71%29.68 "Hg4 mi
9:10 PM91 °FPassing clouds.9 mph67%29.68 "Hg4 mi
8:40 PM91 °FPassing clouds.9 mph67%29.65 "Hg4 mi
8:10 PM93 °FPassing clouds.7 mph63%29.65 "Hg4 mi
7:10 PM95 °FThunderstorms. Passing clouds.10 mph60%29.62 "Hg4 mi
6:40 PM95 °FThunderstorms. Scattered clouds.10 mph56%29.62 "Hg4 mi
6:10 PM97 °FThunderstorms. Scattered clouds.10 mph47%29.62 "Hg4 mi
5:10 PM97 °FScattered clouds.9 mph60%29.59 "Hg4 mi
4:40 PM99 °FScattered clouds.12 mph57%29.59 "Hg4 mi
4:10 PM100 °FScattered clouds.12 mph53%29.59 "Hg4 mi
3:40 PM108 °FScattered clouds.9 mph34%29.59 "Hg5 mi
3:10 PM108 °FScattered clouds.10 mph34%29.59 "Hg5 mi
2:40 PM106 °FPassing clouds.9 mph36%29.59 "Hg5 mi
2:10 PM106 °FPassing clouds.8 mph36%29.62 "Hg6 mi
1:40 PM104 °FSunny.9 mph38%29.62 "Hg10 mi
1:10 PM104 °FSunny.9 mph38%29.65 "Hg10 mi
12:40 PM102 °FSunny.7 mph42%29.68 "Hg10 mi
12:10 PM102 °FSunny.9 mph42%29.68 "Hg10 mi
11:40 AM100 °FClear.12 mph45%29.68 "Hg5 mi
11:10 AM100 °FClear.12 mph45%29.71 "Hg5 mi
Weather by CustomWeather, © 2015

See weather overviewHow to use our weather pages